Location: Arrien
(42.8963°N, 1.0429°E)
Time: 10:30:09
(UTC+00:00)

Cosmos 990 Rocket - Pass Details

Date: 11 December 2025
Orbit: 742 x 764 km, 74.0° (Epoch: 20 January)

Event Time Altitude Azimuth Distance (km) Brightness Sun altitude
Rises 17:05:35 0° 185° (S) 3,164 7.6 -8.0°
Reaches altitude 10° 17:07:58 10° 181° (S) 2,247 6.8 -8.4°
Maximum altitude 17:12:54 53° 105° (ESE) 910 4.1 -9.2°
Drops below altitude 10° 17:17:54 10° 29° (NNE) 2,273 6.0 -10.0°
Enters shadow 17:19:01 - 27° (NNE) 2,704 6.4 -10.2°
